Weather History for Jonesboro, AR

Change the Weather History Date:

Friday, August 2, 2013

  Actual Average Record
Temperature  
Mean Temperature 77 °F 81 °F  
Max Temperature 87 °F 91 °F 105 °F (1901)
Min Temperature 67 °F 71 °F 54 °F (1918)
Degree Days  
Heating Degree Days 0 0  
Month to date heating degree days 0 0  
Since 1 June heating degree days 0 1  
Since 1 July heating degree days 0 0  
Cooling Degree Days 12 16  
Month to date cooling degree days 25 32  
Year to date cooling degree days 1159 1119  
Since 1 June cooling degree days 929 906  
Growing Degree Days 26 (Base 50)    
Moisture  
Dew Point 69 °F    
Average Humidity 76    
Maximum Humidity 97    
Minimum Humidity 55    
Precipitation  
Precipitation 0.00 in 0.08 in 1.33 in (1950)
Month to date precipitation 0.00 0.17  
Year to date precipitation 33.73 28.74  
Snow  
Snow 0.00 in 0.00 in - ()
Month to date snowfall 0.0 0.0  
Since 1 June snowfall 0.0 0.0  
Since 1 July snowfall 0.0 0.0  
Snow Depth 0.00 in    
Sea Level Pressure  
Sea Level Pressure 29.98 in    
Wind  
Wind Speed 5 mph (South)    
Max Wind Speed 14 mph    
Max Gust Speed 16 mph    
Visibility 9 miles    
Events      
T = Trace of Precipitation, MM = Missing Value Source: NWS Daily Summary

Daily Weather History Graph

Daily Weather History Graph

Search for Another Location

Airport:

Trip Planner

Search our weather history database for the weather conditions in past years. The results will help you decide how hot, cold, wet, or windy it might be!

Date:

Astronomy

Aug. 02, 2013 Rise Set
Actual Time 6:11 AM CDT 8:05 PM CDT
Civil Twilight 5:43 AM CDT 8:33 PM CDT
Nautical Twilight 5:09 AM CDT 9:07 PM CDT
Astronomical Twilight 4:32 AM CDT 9:44 PM CDT
Moon 2:33 AM CDT (8/2) 5:02 PM CDT (8/2)
Length of Visible Light 14h 50m
Length of Day
13h 54m
Waning Crescent, 15% of the Moon is Illuminated
Aug 2
Waning Crescent
Aug 6
New
Aug 14
First Quarter
Aug 20
Full
Aug 28
Last Quarter

Hourly Weather History & Observations

Time (CDT) Temp. Heat Index Dew Point Humidity Pressure Visibility Wind Dir Wind Speed Gust Speed Precip Events Conditions
12:53 AM 71.1 °F - 69.1 °F 93% 30.01 in 10.0 mi Calm Calm - N/A   Clear
1:53 AM 70.0 °F - 68.0 °F 93% 30.00 in 9.0 mi Calm Calm - N/A   Clear
2:53 AM 69.1 °F - 66.9 °F 93% 29.98 in 7.0 mi Calm Calm - N/A   Clear
3:53 AM 69.1 °F - 66.9 °F 93% 29.98 in 7.0 mi Calm Calm - N/A   Clear
4:53 AM 68.0 °F - 66.0 °F 93% 29.98 in 6.0 mi Calm Calm - N/A   Clear
5:53 AM 66.9 °F - 64.9 °F 93% 29.99 in 7.0 mi Calm Calm - N/A   Clear
6:53 AM 69.1 °F - 68.0 °F 96% 30.01 in 5.0 mi Calm Calm - N/A   Clear
7:53 AM 73.9 °F - 70.0 °F 87% 30.01 in 9.0 mi Calm Calm - N/A   Clear
8:53 AM 78.1 °F - 70.0 °F 76% 30.02 in 10.0 mi SSE 3.5 mph - N/A   Clear
9:53 AM 80.1 °F 83.2 °F 70.0 °F 71% 30.02 in 10.0 mi SSE 8.1 mph - N/A   Clear
10:53 AM 82.0 °F 85.5 °F 69.1 °F 65% 30.02 in 10.0 mi SSE 10.4 mph - N/A   Clear
11:53 AM 84.0 °F 87.8 °F 69.1 °F 61% 30.02 in 10.0 mi South 8.1 mph - N/A   Clear
12:53 PM 84.9 °F 88.8 °F 69.1 °F 59% 30.01 in 10.0 mi South 9.2 mph - N/A   Clear
1:53 PM 84.9 °F 88.8 °F 69.1 °F 59% 29.99 in 10.0 mi SSW 10.4 mph 16.1 mph N/A   Clear
2:53 PM 86.0 °F 89.4 °F 68.0 °F 55% 29.98 in 10.0 mi SSE 11.5 mph - N/A   Clear
3:53 PM 84.9 °F 88.2 °F 68.0 °F 57% 29.97 in 10.0 mi South 5.8 mph - N/A   Clear
4:53 PM 86.0 °F 90.1 °F 69.1 °F 57% 29.96 in 10.0 mi South 9.2 mph - N/A   Clear
5:53 PM 86.0 °F 90.1 °F 69.1 °F 57% 29.94 in 10.0 mi South 12.7 mph - N/A   Clear
6:53 PM 84.9 °F 89.4 °F 70.0 °F 61% 29.94 in 10.0 mi South 8.1 mph - N/A   Clear
7:53 PM 82.9 °F 88.0 °F 72.0 °F 69% 29.94 in 10.0 mi South 3.5 mph - N/A   Clear
8:53 PM 81.0 °F 85.2 °F 72.0 °F 74% 29.94 in 10.0 mi South 4.6 mph - N/A   Clear
9:53 PM 80.1 °F 84.2 °F 73.0 °F 79% 29.95 in 10.0 mi South 3.5 mph - N/A   Scattered Clouds
10:53 PM 77.0 °F - 73.0 °F 88% 29.95 in 10.0 mi ENE 4.6 mph - N/A   Clear
11:53 PM 75.9 °F - 72.0 °F 87% 29.94 in 10.0 mi Calm Calm - N/A   Clear